| time (UTC) | temp F | wind direction | speed MPH | gust MPH | rain 1hr in | rain 24hr in | rain mn in | humidity % | barometer mb |
| 20260504100504 | 54 | 10 | 0.0 | 1.0 | 0.00 | 0.00 | 0.00 | 94 | 1016.8 |
| 20260504082000 | 57 | 5 | 0.0 | 0.0 | 0.00 | 0.00 | 0.00 | 92 | 1017.0 |
| 20260504080459 | 57 | 5 | 0.0 | 0.0 | 0.00 | 0.00 | 0.00 | 92 | 1016.9 |
| 20260504050500 | 61 | 55 | 0.0 | 2.0 | 0.00 | 0.00 | 0.00 | 86 | 1018.1 |
| 20260504050004 | 61 | 55 | 0.0 | 2.0 | 0.00 | 0.00 | 0.00 | 85 | 1018.1 |
| 20260504045457 | 62 | 55 | 0.0 | 0.0 | 0.00 | 0.00 | 0.00 | 85 | 1018.1 |
| 20260504044956 | 62 | 55 | 0.0 | 0.0 | 0.00 | 0.00 | 0.00 | 85 | 1018.1 |
| 20260504044501 | 62 | 55 | 0.0 | 0.0 | 0.00 | 0.00 | 0.00 | 85 | 1018.1 |
| 20260504043959 | 62 | 55 | 0.0 | 0.0 | 0.00 | 0.00 | 0.00 | 85 | 1018.2 |
| 20260504043500 | 62 | 55 | 0.0 | 2.0 | 0.00 | 0.00 | 0.00 | 85 | 1018.2 |
| 20260504042957 | 62 | 55 | 0.0 | 2.0 | 0.00 | 0.00 | 0.00 | 84 | 1018.2 |
| 20260504042457 | 63 | 55 | 0.0 | 2.0 | 0.00 | 0.00 | 0.00 | 84 | 1018.1 |
| 20260504041501 | 63 | 55 | 0.0 | 0.0 | 0.00 | 0.00 | 0.00 | 83 | 1018.1 |
| 20260504040500 | 63 | 55 | 0.0 | 0.0 | 0.00 | 0.00 | 0.00 | 82 | 1018.2 |
| 20260504040006 | 63 | 55 | 0.0 | 0.0 | 0.00 | 0.00 | 0.00 | 82 | 1018.2 |
| 20260504035500 | 63 | 55 | 0.0 | 0.0 | 0.00 | 0.00 | 0.00 | 82 | 1018.2 |
| 20260504034957 | 63 | 55 | 0.0 | 0.0 | 0.00 | 0.00 | 0.00 | 82 | 1018.2 |
| 20260504034500 | 63 | 55 | 0.0 | 0.0 | 0.00 | 0.00 | 0.00 | 81 | 1018.2 |
| 20260504034000 | 63 | 55 | 0.0 | 1.0 | 0.00 | 0.00 | 0.00 | 81 | 1018.1 |
| 20260504033500 | 63 | 55 | 0.0 | 1.0 | 0.00 | 0.00 | 0.00 | 81 | 1018.1 |
| 20260504033002 | 63 | 55 | 0.0 | 0.0 | 0.00 | 0.00 | 0.00 | 81 | 1018.1 |
| 20260504032500 | 63 | 55 | 0.0 | 0.0 | 0.00 | 0.00 | 0.00 | 80 | 1018.1 |
| 20260504032000 | 63 | 55 | 0.0 | 0.0 | 0.00 | 0.00 | 0.00 | 79 | 1018.1 |
| 20260504031504 | 63 | 55 | 0.0 | 0.0 | 0.00 | 0.00 | 0.00 | 79 | 1018.1 |
| 20260504031000 | 63 | 55 | 0.0 | 0.0 | 0.00 | 0.00 | 0.00 | 79 | 1018.0 |
| 20260504030500 | 63 | 55 | 0.0 | 0.0 | 0.00 | 0.00 | 0.00 | 79 | 1018.0 |
| 20260504030007 | 63 | 55 | 0.0 | 0.0 | 0.00 | 0.00 | 0.00 | 78 | 1018.0 |
| 20260504025458 | 64 | 55 | 0.0 | 0.0 | 0.00 | 0.00 | 0.00 | 78 | 1017.8 |
| 20260504025000 | 64 | 55 | 0.0 | 0.0 | 0.00 | 0.00 | 0.00 | 78 | 1017.8 |
| 20260504024502 | 64 | 55 | 0.0 | 1.0 | 0.00 | 0.00 | 0.00 | 78 | 1017.8 |
| 20260504024002 | 64 | 55 | 0.0 | 2.0 | 0.00 | 0.00 | 0.00 | 78 | 1018.1 |
| 20260504023500 | 64 | 55 | 0.0 | 2.0 | 0.00 | 0.00 | 0.00 | 77 | 1018.1 |
| 20260504023001 | 64 | 55 | 0.0 | 0.0 | 0.00 | 0.00 | 0.00 | 78 | 1018.1 |
| 20260504022500 | 64 | 55 | 0.0 | 1.0 | 0.00 | 0.00 | 0.00 | 77 | 1017.8 |
| 20260504022001 | 64 | 55 | 0.0 | 1.0 | 0.00 | 0.00 | 0.00 | 77 | 1017.8 |
| 20260504021504 | 64 | 59 | 0.0 | 1.0 | 0.00 | 0.00 | 0.00 | 76 | 1017.8 |
| 20260504021000 | 64 | 59 | 0.0 | 3.0 | 0.00 | 0.00 | 0.00 | 75 | 1017.7 |
| 20260504020500 | 65 | 57 | 0.0 | 3.0 | 0.00 | 0.00 | 0.00 | 75 | 1017.7 |
| 20260504020005 | 65 | 82 | 0.0 | 2.0 | 0.00 | 0.00 | 0.00 | 74 | 1017.7 |
| 20260504015500 | 65 | 83 | 1.0 | 2.0 | 0.00 | 0.00 | 0.00 | 74 | 1017.5 |
| 20260504015000 | 65 | 55 | 0.0 | 3.0 | 0.00 | 0.00 | 0.00 | 74 | 1017.5 |
| 20260504014500 | 65 | 55 | 0.0 | 3.0 | 0.00 | 0.00 | 0.00 | 73 | 1017.5 |
| 20260504013500 | 66 | 57 | 0.0 | 3.0 | 0.00 | 0.00 | 0.00 | 74 | 1017.1 |
| 20260504013001 | 66 | 57 | 0.0 | 3.0 | 0.00 | 0.00 | 0.00 | 73 | 1017.1 |
| 20260504012458 | 66 | 61 | 0.0 | 3.0 | 0.00 | 0.00 | 0.00 | 72 | 1017.1 |
| 20260504012000 | 66 | 68 | 0.0 | 3.0 | 0.00 | 0.00 | 0.00 | 72 | 1017.1 |
| 20260504011501 | 66 | 67 | 0.0 | 6.0 | 0.00 | 0.00 | 0.00 | 72 | 1017.1 |
| 20260504010459 | 66 | 55 | 1.0 | 3.0 | 0.00 | 0.00 | 0.00 | 71 | 1017.1 |
| 20260504010003 | 66 | 44 | 1.0 | 3.0 | 0.00 | 0.00 | 0.00 | 71 | 1017.1 |
| 20260504005000 | 67 | 56 | 0.0 | 3.0 | 0.00 | 0.02 | 0.00 | 69 | 1016.8 |
| 20260504004501 | 67 | 56 | 1.0 | 3.0 | 0.00 | 0.02 | 0.00 | 69 | 1016.8 |
| 20260504004001 | 67 | 42 | 0.0 | 2.0 | 0.00 | 0.02 | 0.00 | 69 | 1016.6 |
| 20260504003500 | 67 | 32 | 1.0 | 2.0 | 0.00 | 0.02 | 0.00 | 69 | 1016.6 |
| 20260504002500 | 68 | 23 | 0.0 | 1.0 | 0.00 | 0.02 | 0.00 | 67 | 1016.7 |
| 20260504002000 | 69 | 23 | 0.0 | 2.0 | 0.00 | 0.02 | 0.00 | 67 | 1016.7 |
| 20260504001500 | 69 | 23 | 0.0 | 2.0 | 0.00 | 0.02 | 0.00 | 66 | 1016.7 |
| 20260504001000 | 69 | 30 | 0.0 | 4.0 | 0.00 | 0.02 | 0.00 | 65 | 1016.7 |
| 20260504000457 | 70 | 15 | 1.0 | 4.0 | 0.00 | 0.02 | 0.00 | 64 | 1016.7 |
| 20260504000004 | 70 | 30 | 1.0 | 3.0 | 0.00 | 0.02 | 0.00 | 63 | 1016.7 |
| 20260503235500 | 70 | 54 | 0.0 | 3.0 | 0.00 | 0.02 | 0.00 | 61 | 1016.6 |
| 20260503235000 | 71 | 54 | 1.0 | 3.0 | 0.00 | 0.02 | 0.00 | 62 | 1016.6 |
| 20260503234500 | 71 | 65 | 1.0 | 4.0 | 0.00 | 0.02 | 0.00 | 60 | 1016.6 |
| 20260503234002 | 71 | 45 | 1.0 | 4.0 | 0.00 | 0.02 | 0.00 | 60 | 1016.2 |
| 20260503233500 | 72 | 51 | 1.0 | 3.0 | 0.00 | 0.02 | 0.00 | 59 | 1016.2 |
| 20260503233001 | 72 | 59 | 1.0 | 3.0 | 0.00 | 0.02 | 0.00 | 60 | 1016.2 |
| 20260503232457 | 72 | 67 | 2.0 | 3.0 | 0.00 | 0.02 | 0.00 | 58 | 1016.3 |
| 20260503232002 | 72 | 9 | 1.0 | 3.0 | 0.00 | 0.02 | 0.00 | 57 | 1016.3 |
| 20260503231458 | 73 | 17 | 1.0 | 3.0 | 0.00 | 0.02 | 0.00 | 58 | 1016.3 |
| 20260503230502 | 73 | 355 | 1.0 | 4.0 | 0.00 | 0.02 | 0.00 | 57 | 1016.1 |
| 20260503225501 | 74 | 5 | 1.0 | 3.0 | 0.00 | 0.02 | 0.00 | 57 | 1016.1 |
| 20260503225001 | 74 | 9 | 1.0 | 8.0 | 0.00 | 0.02 | 0.00 | 57 | 1016.1 |
| 20260503224500 | 74 | 67 | 2.0 | 8.0 | 0.00 | 0.02 | 0.00 | 57 | 1016.1 |
| 20260503224000 | 74 | 46 | 0.0 | 4.0 | 0.00 | 0.02 | 0.00 | 56 | 1016.1 |
| 20260503223001 | 74 | 63 | 2.0 | 4.0 | 0.00 | 0.02 | 0.00 | 56 | 1016.1 |
| 20260503222501 | 75 | 5 | 1.0 | 4.0 | 0.00 | 0.02 | 0.00 | 55 | 1016.2 |
| 20260503222000 | 75 | 347 | 1.0 | 5.0 | 0.00 | 0.02 | 0.00 | 54 | 1016.2 |
| 20260503221500 | 75 | 9 | 1.0 | 6.0 | 0.00 | 0.02 | 0.00 | 54 | 1016.2 |
| 20260503221001 | 75 | 98 | 3.0 | 12.0 | 0.00 | 0.02 | 0.00 | 53 | 1016.1 |
| 20260503220458 | 75 | 53 | 4.0 | 12.0 | 0.00 | 0.02 | 0.00 | 54 | 1016.1 |
| 20260503220004 | 75 | 22 | 1.0 | 6.0 | 0.00 | 0.02 | 0.00 | 54 | 1016.1 |
| 20260503215000 | 75 | 81 | 1.0 | 6.0 | 0.00 | 0.02 | 0.00 | 56 | 1016.1 |
| 20260503214001 | 76 | 45 | 2.0 | 7.0 | 0.00 | 0.02 | 0.00 | 54 | 1016.1 |
| 20260503213000 | 77 | 348 | 1.0 | 5.0 | 0.00 | 0.02 | 0.00 | 51 | 1016.1 |
| 20260503212501 | 77 | 71 | 2.0 | 9.0 | 0.00 | 0.02 | 0.00 | 53 | 1016.0 |
| 20260503212000 | 76 | 265 | 2.0 | 9.0 | 0.00 | 0.02 | 0.00 | 53 | 1016.0 |
| 20260503211002 | 76 | 26 | 1.0 | 7.0 | 0.00 | 0.02 | 0.00 | 53 | 1016.1 |
| 20260503210500 | 75 | 345 | 2.0 | 7.0 | 0.00 | 0.02 | 0.00 | 55 | 1016.1 |
| 20260503210005 | 75 | 114 | 1.0 | 3.0 | 0.00 | 0.02 | 0.00 | 55 | 1016.1 |
| 20260503205500 | 76 | 162 | 1.0 | 6.0 | 0.00 | 0.02 | 0.00 | 54 | 1016.2 |
| 20260503204957 | 77 | 157 | 1.0 | 6.0 | 0.00 | 0.02 | 0.00 | 52 | 1016.2 |
| 20260503204500 | 78 | 34 | 1.0 | 8.0 | 0.00 | 0.02 | 0.00 | 52 | 1016.2 |
| 20260503204000 | 79 | 93 | 3.0 | 8.0 | 0.00 | 0.02 | 0.00 | 51 | 1016.2 |
| 20260503203500 | 78 | 242 | 1.0 | 5.0 | 0.00 | 0.02 | 0.00 | 53 | 1016.2 |
| 20260503203000 | 77 | 92 | 2.0 | 5.0 | 0.00 | 0.02 | 0.00 | 51 | 1016.2 |
| 20260503202502 | 78 | 55 | 2.0 | 5.0 | 0.00 | 0.02 | 0.00 | 52 | 1016.6 |
| 20260503201957 | 78 | 250 | 1.0 | 3.0 | 0.00 | 0.02 | 0.00 | 52 | 1016.6 |
| 20260503201500 | 78 | 44 | 2.0 | 3.0 | 0.00 | 0.02 | 0.00 | 51 | 1016.6 |
| 20260503201001 | 78 | 177 | 1.0 | 6.0 | 0.00 | 0.02 | 0.00 | 54 | 1016.6 |
| 20260503200500 | 79 | 177 | 1.0 | 7.0 | 0.00 | 0.02 | 0.00 | 50 | 1016.6 |
| 20260503200001 | 79 | 45 | 2.0 | 7.0 | 0.00 | 0.02 | 0.00 | 53 | 1016.6 |
| 20260503195500 | 77 | 338 | 1.0 | 7.0 | 0.00 | 0.08 | 0.00 | 51 | 1016.7 |
| 20260503194957 | 76 | 34 | 3.0 | 7.0 | 0.00 | 0.08 | 0.00 | 53 | 1016.7 |
| 20260503194500 | 76 | 263 | 2.0 | 7.0 | 0.00 | 0.08 | 0.00 | 55 | 1016.7 |
| 20260503193500 | 78 | 157 | 1.0 | 3.0 | 0.00 | 0.08 | 0.00 | 50 | 1017.1 |
| 20260503192500 | 79 | 167 | 2.0 | 7.0 | 0.00 | 0.08 | 0.00 | 51 | 1017.3 |
| 20260503191501 | 78 | 304 | 2.0 | 5.0 | 0.00 | 0.08 | 0.00 | 52 | 1017.3 |
| 20260503190503 | 78 | 45 | 1.0 | 6.0 | 0.00 | 0.08 | 0.00 | 51 | 1017.6 |
| 20260503190004 | 78 | 355 | 3.0 | 7.0 | 0.00 | 0.08 | 0.00 | 52 | 1017.6 |
| 20260503185502 | 78 | 192 | 1.0 | 7.0 | 0.00 | 0.19 | 0.00 | 52 | 1017.8 |
| 20260503185001 | 78 | 92 | 1.0 | 5.0 | 0.00 | 0.19 | 0.00 | 52 | 1017.8 |
| 20260503184500 | 78 | 188 | 1.0 | 4.0 | 0.00 | 0.19 | 0.00 | 54 | 1017.8 |
| 20260503184001 | 77 | 188 | 1.0 | 7.0 | 0.00 | 0.19 | 0.00 | 54 | 1017.9 |
| 20260503183500 | 77 | 340 | 2.0 | 8.0 | 0.00 | 0.19 | 0.00 | 52 | 1017.9 |
| 20260503183001 | 77 | 26 | 3.0 | 8.0 | 0.00 | 0.19 | 0.00 | 55 | 1017.9 |
| 20260503182501 | 77 | 14 | 3.0 | 7.0 | 0.00 | 0.19 | 0.00 | 53 | 1018.0 |
| 20260503181002 | 76 | 59 | 3.0 | 11.0 | 0.00 | 0.19 | 0.00 | 57 | 1018.1 |
| 20260503180500 | 76 | 34 | 3.0 | 11.0 | 0.00 | 0.19 | 0.00 | 57 | 1018.1 |
| 20260503175501 | 76 | 212 | 2.0 | 4.0 | 0.00 | 0.29 | 0.00 | 59 | 1018.5 |
| 20260503175000 | 75 | 185 | 2.0 | 7.0 | 0.00 | 0.29 | 0.00 | 58 | 1018.5 |
| 20260503174501 | 75 | 113 | 2.0 | 7.0 | 0.00 | 0.29 | 0.00 | 60 | 1018.5 |
| 20260503173958 | 75 | 48 | 3.0 | 8.0 | 0.00 | 0.29 | 0.00 | 59 | 1018.6 |
| 20260503173000 | 75 | 238 | 1.0 | 5.0 | 0.00 | 0.29 | 0.00 | 63 | 1018.6 |
| 20260503172501 | 75 | 42 | 2.0 | 5.0 | 0.00 | 0.29 | 0.00 | 59 | 1018.6 |
| 20260503172000 | 75 | 121 | 1.0 | 4.0 | 0.00 | 0.29 | 0.00 | 59 | 1018.6 |
| 20260503171500 | 74 | 91 | 2.0 | 5.0 | 0.00 | 0.29 | 0.00 | 61 | 1018.6 |
| 20260503170957 | 74 | 92 | 2.0 | 8.0 | 0.00 | 0.29 | 0.00 | 62 | 1018.7 |
| 20260503150500 | 68 | 51 | 5.0 | 10.0 | 0.00 | 0.29 | 0.00 | 73 | 1018.7 |
| 20260503131000 | 60 | 355 | 2.0 | 4.0 | 0.00 | 0.29 | 0.00 | 92 | 1018.3 |
| 20260503130502 | 60 | 319 | 2.0 | 4.0 | 0.00 | 0.29 | 0.00 | 93 | 1018.3 |